Gallup, NM

6:26 PM MDT on March 25, 2017 (GMT -0600)
Gallup Municipal

Weather History for KGUP - March, 2013

Change the Weather History Date:

Friday, March 29, 2013

  Actual Average Record
Temperature  
Mean Temperature 48 °F -  
Max Temperature 70 °F 57 °F 75 °F (2015)
Min Temperature 26 °F 23 °F -5 °F (1997)
Degree Days  
Heating Degree Days 17    
Moisture  
Dew Point 15 °F    
Average Humidity 31    
Maximum Humidity 53    
Minimum Humidity 13    
Precipitation  
Precipitation 0.00 in - - ()
Sea Level Pressure  
Sea Level Pressure 30.05 in    
Wind  
Wind Speed 5 mph (North)    
Max Wind Speed 15 mph    
Max Gust Speed 28 mph    
Visibility 10 miles    
Events      
Averages and records for this station are not official NWS values.
T = Trace of Precipitation, MM = Missing Value Source: NWS Daily Summary

Daily Weather History Graph

Daily Weather History Graph

Search for Another Location

Airport or City:

Trip Planner

Search our weather history database for the weather conditions in past years. The results will help you decide how hot, cold, wet, or windy it might be!

Date:

Astronomy

Mar. 29, 2013 Rise Set
Actual Time 7:05 AM MDT 7:34 PM MDT
Civil Twilight 6:39 AM MDT 8:00 PM MDT
Nautical Twilight 6:09 AM MDT 8:30 PM MDT
Astronomical Twilight 5:39 AM MDT 9:00 PM MDT
Moon 10:30 PM MDT (3/29) 8:22 AM MDT (3/29)
Length of Visible Light 13h 20m
Length of Day
12h 29m
Waning Gibbous, 93% of the Moon is Illuminated
Mar 29
Waning Gibbous
Apr 2
Last Quarter
Apr 10
New
Apr 18
First Quarter
Apr 25
Full

Hourly Weather History & Observations

Time (MDT) Temp. Windchill Dew Point Humidity Pressure Visibility Wind Dir Wind Speed Gust Speed Precip Events Conditions
12:53 AM 35.1 °F 32.2 °F 12.9 °F 40% 30.02 in 10.0 mi ENE 3.5 mph - N/A   Clear
1:53 AM 34.0 °F 28.8 °F 12.9 °F 42% 30.03 in 10.0 mi ENE 5.8 mph - N/A   Clear
2:53 AM 35.1 °F 31.0 °F 15.1 °F 44% 30.01 in 10.0 mi ENE 4.6 mph - N/A   Clear
3:53 AM 33.1 °F 28.7 °F 14.0 °F 46% 30.02 in 10.0 mi ENE 4.6 mph - N/A   Clear
4:53 AM 30.0 °F 26.5 °F 12.0 °F 47% 30.05 in 10.0 mi ENE 3.5 mph - N/A   Clear
5:53 AM 30.9 °F - 15.1 °F 52% 30.06 in 10.0 mi Calm Calm - N/A   Clear
6:53 AM 26.1 °F 21.9 °F 10.9 °F 53% 30.13 in 10.0 mi NE 3.5 mph - N/A   Clear
7:53 AM 30.0 °F 25.2 °F 12.9 °F 49% 30.18 in 10.0 mi East 4.6 mph - N/A   Clear
8:53 AM 39.0 °F - 18.0 °F 43% 30.17 in 10.0 mi Calm Calm - N/A   Clear
9:53 AM 51.1 °F - 21.0 °F 31% 30.10 in 10.0 mi Variable 3.5 mph - N/A   Clear
10:53 AM 57.0 °F - 21.9 °F 26% 30.05 in 10.0 mi West 6.9 mph - N/A   Clear
11:53 AM 59.0 °F - 21.9 °F 24% 30.08 in 10.0 mi Variable 3.5 mph - N/A   Clear
12:53 PM 63.0 °F - 21.0 °F 20% 30.05 in 10.0 mi Variable 3.5 mph - N/A   Clear
1:53 PM 66.0 °F - 19.0 °F 17% 30.01 in 10.0 mi WSW 10.4 mph 21.9 mph N/A   Clear
2:53 PM 70.0 °F - 17.1 °F 13% 29.94 in 10.0 mi WNW 12.7 mph 27.6 mph N/A   Scattered Clouds
3:53 PM 66.0 °F - 15.1 °F 14% 29.97 in 10.0 mi Variable 6.9 mph 26.5 mph N/A   Scattered Clouds
4:53 PM 66.9 °F - 15.1 °F 14% 29.97 in 10.0 mi West 13.8 mph 23.0 mph N/A   Partly Cloudy
5:53 PM 66.0 °F - 14.0 °F 13% 29.97 in 10.0 mi West 15.0 mph 19.6 mph N/A   Clear
6:53 PM 64.0 °F - 14.0 °F 14% 30.04 in 10.0 mi WNW 8.1 mph - N/A   Partly Cloudy
7:53 PM 57.0 °F - 12.0 °F 17% 30.06 in 10.0 mi West 6.9 mph - N/A   Clear
8:53 PM 50.0 °F - 12.9 °F 23% 30.07 in 10.0 mi West 3.5 mph - N/A   Clear
9:53 PM 42.1 °F - 10.9 °F 28% 30.06 in 10.0 mi Calm Calm - N/A   Clear
10:53 PM 39.0 °F 35.7 °F 12.0 °F 33% 30.07 in 10.0 mi NE 4.6 mph - N/A   Clear
11:53 PM 34.0 °F 31.0 °F 9.0 °F 35% 30.09 in 10.0 mi NE 3.5 mph - N/A   Clear